CDT,Max TemperatureF,Mean TemperatureF,Min TemperatureF,Max Dew PointF,MeanDew PointF,Min DewpointF,Max Humidity, Mean Humidity, Min Humidity, Max Sea Level PressureIn, Mean Sea Level PressureIn, Min Sea Level PressureIn, Max VisibilityMiles, Mean VisibilityMiles, Min VisibilityMiles, Max Wind SpeedMPH, Mean Wind SpeedMPH, Max Gust SpeedMPH,PrecipitationIn, CloudCover, Events, WindDirDegrees
2013-3-1,24,22,19,21,17,14,89,77,65,30.36,30.28,30.19,10,9,4,13,7,18,0.00,8,Snow,1
2013-3-2,28,22,16,22,17,13,86,76,62,30.34,30.24,30.09,10,10,10,9,4,,0.00,6,,170
2013-3-3,34,28,21,26,22,17,89,77,62,30.08,29.92,29.75,10,10,5,20,8,29,0.00,4,Rain,139
2013-3-4,32,29,26,30,27,21,100,90,70,29.97,29.82,29.73,10,6,2,18,9,26,0.00,8,Snow,116
2013-3-5,29,26,22,24,20,16,89,79,71,30.34,30.12,29.97,10,8,2,25,13,34,0.00,7,Snow,317
2013-3-6,28,23,18,20,18,15,89,82,71,30.42,30.36,30.28,10,10,10,10,6,16,0.00,6,,48
2013-3-7,37,27,17,28,22,15,92,82,65,30.31,30.23,30.14,10,9,7,17,8,24,0.00,1,,130
2013-3-8,45,34,23,36,29,21,94,83,68,30.23,30.12,29.95,7,6,2,20,5,24,0.06,2,Rain-Thunderstorm,119
2013-3-9,46,39,32,45,38,32,99,96,92,29.94,29.73,29.61,7,4,0,18,9,26,0.17,8,Fog-Rain-Snow-Thunderstorm,147
2013-3-10,32,28,23,32,25,21,96,93,88,29.91,29.86,29.75,10,4,0,26,17,34,0.03,8,Snow,359
2013-3-11,30,22,14,21,18,11,92,80,64,29.94,29.87,29.83,10,10,10,15,11,23,0.01,6,,309
2013-3-12,30,22,15,26,19,14,95,79,64,30.28,30.09,29.95,10,8,2,21,9,33,0.00,5,Snow,302
2013-3-13,27,18,9,20,15,7,92,79,64,30.41,30.33,30.21,10,10,7,9,5,,0.00,1,,216
2013-3-14,45,34,23,36,28,19,99,77,65,30.19,30.08,30.02,10,9,0,13,6,,0.00,1,Fog,218
2013-3-15,41,34,26,35,33,26,100,92,77,30.02,29.85,29.75,7,4,0,13,3,17,0.00,5,Fog,44
2013-3-16,33,27,21,32,22,15,96,80,67,30.21,30.08,29.86,10,9,2,20,12,26,0.00,8,,3
2013-3-17,34,24,14,30,19,9,92,78,69,30.21,29.99,29.75,10,10,5,17,10,24,0.00,4,,105
2013-3-18,32,24,17,32,17,8,99,74,55,30.00,29.82,29.67,10,8,1,26,16,36,0.00,6,Rain-Snow,291
2013-3-19,32,22,11,18,9,2,76,62,49,30.32,30.15,29.99,10,10,10,18,8,25,0.00,1,Snow,315
2013-3-20,25,18,10,10,6,3,73,61,44,30.36,30.26,30.12,10,10,7,16,12,23,0.00,1,Snow,329
2013-3-21,28,18,7,18,10,3,85,71,58,30.13,30.04,29.96,10,10,10,10,3,,0.00,0,,84
2013-3-22,31,22,13,24,17,11,90,76,60,30.06,30.03,30.00,10,10,10,9,3,,0.00,4,Snow,109
2013-3-23,32,28,24,24,22,19,87,76,61,30.14,30.10,30.05,10,10,7,14,3,18,0.00,8,Snow,20
2013-3-24,30,26,22,26,21,17,94,81,68,30.10,30.04,29.98,10,7,1,17,11,24,0.00,8,Snow,343
2013-3-25,32,28,23,24,21,19,91,78,60,30.30,30.17,30.06,10,8,2,18,13,25,0.00,8,Snow,335
2013-3-26,32,23,14,22,17,12,89,72,52,30.34,30.30,30.25,10,10,10,12,6,,0.00,1,,338
2013-3-27,42,32,21,31,26,19,92,77,58,30.29,30.26,30.22,10,10,10,13,4,16,0.00,1,,119
2013-3-28,51,40,29,39,32,26,92,79,55,30.27,30.24,30.19,10,9,7,10,4,,0.00,2,,128
2013-3-29,59,44,29,43,35,28,96,72,42,30.23,30.16,30.03,10,9,4,16,5,20,0.00,1,,161
2013-3-30,61,50,39,47,40,33,97,74,39,30.04,29.95,29.89,10,9,4,28,7,39,0.10,4,Rain-Thunderstorm,273
2013-3-31,44,35,26,36,29,18,99,78,51,30.16,30.00,29.92,10,8,1,21,7,30,0.00,4,Snow,329